time, Switch, Flow(0), Analog(2)
yyyy/mm/dd HH:MM:SS.fff, True=FILTERED|False=TOTAL, L/min, V
2023/06/17 13:00:03.163, True, 4.313, 0.133898
2023/06/17 13:00:03.667, True, 3.976, 0.131609
2023/06/17 13:00:04.163, True, 3.370, 0.128328
2023/06/17 13:00:04.667, True, 3.316, 0.129091
2023/06/17 13:00:05.171, True, 2.987, 0.131304
2023/06/17 13:00:05.667, True, 3.030, 0.132067
2023/06/17 13:00:06.171, True, 2.985, 0.130007
2023/06/17 13:00:06.675, True, 3.316, 0.133135
2023/06/17 13:00:07.170, True, 3.037, 0.128099
2023/06/17 13:00:07.675, True, 2.979, 0.130312
2023/06/17 13:00:08.179, True, 2.653, 0.129625
2023/06/17 13:00:08.675, True, 3.033, 0.129473
2023/06/17 13:00:09.178, True, 2.984, 0.131304
2023/06/17 13:00:09.683, True, 3.317, 0.130388
2023/06/17 13:00:10.178, True, 3.033, 0.129091
2023/06/17 13:00:10.683, True, 2.983, 0.129931
2023/06/17 13:00:11.187, True, 3.316, 0.128939
2023/06/17 13:00:11.691, True, 2.984, 0.130846
2023/06/17 13:00:12.187, True, 3.372, 0.128405
2023/06/17 13:00:12.690, True, 2.983, 0.129397
2023/06/17 13:00:13.194, True, 2.984, 0.130694
2023/06/17 13:00:13.691, True, 3.370, 0.128252
2023/06/17 13:00:14.195, True, 2.984, 0.131456
2023/06/17 13:00:14.699, True, 2.984, 0.129854
2023/06/17 13:00:15.194, True, 3.033, 0.128405
2023/06/17 13:00:15.699, True, 2.984, 0.130617
2023/06/17 13:00:16.202, True, 2.985, 0.130465
2023/06/17 13:00:16.699, True, 3.036, 0.130159
2023/06/17 13:00:17.202, True, 2.986, 0.129549
2023/06/17 13:00:17.706, True, 2.979, 0.129397
2023/06/17 13:00:18.203, True, 3.033, 0.130236
2023/06/17 13:00:18.706, True, 2.658, 0.130312
2023/06/17 13:00:19.210, True, 2.982, 0.128710
2023/06/17 13:00:19.706, True, 3.367, 0.128634
2023/06/17 13:00:20.210, True, 2.989, 0.130236
2023/06/17 13:00:20.714, True, 2.979, 0.131838
2023/06/17 13:00:21.211, True, 3.033, 0.129549
2023/06/17 13:00:21.715, True, 2.989, 0.129931
2023/06/17 13:00:22.218, True, 3.311, 0.132982
2023/06/17 13:00:22.714, True, 3.032, 0.131075
2023/06/17 13:00:23.219, True, 2.984, 0.130007
2023/06/17 13:00:23.723, True, 3.317, 0.131228
2023/06/17 13:00:24.218, True, 3.032, 0.131609
2023/06/17 13:00:24.723, True, 2.984, 0.128252
2023/06/17 13:00:25.226, True, 3.316, 0.132372
2023/06/17 13:00:25.722, True, 3.033, 0.130846
2023/06/17 13:00:26.226, True, 2.986, 0.127489
2023/06/17 13:00:26.722, True, 3.032, 0.130770
2023/06/17 13:00:27.227, True, 3.316, 0.132982
2023/06/17 13:00:27.730, True, 2.984, 0.130694
2023/06/17 13:00:28.226, True, 3.033, 0.132296
2023/06/17 13:00:28.730, True, 3.317, 0.131456
2023/06/17 13:00:29.234, True, 2.984, 0.132296
2023/06/17 13:00:29.731, True, 3.032, 0.131762
2023/06/17 13:00:30.235, True, 2.985, 0.133135
2023/06/17 13:00:30.738, True, 2.987, 0.131151
2023/06/17 13:00:31.234, True, 3.030, 0.134737
2023/06/17 13:00:31.738, True, 2.984, 0.132982
2023/06/17 13:00:32.242, True, 2.984, 0.132830
2023/06/17 13:00:32.739, True, 3.370, 0.134585
2023/06/17 13:00:33.243, True, 2.984, 0.131685
2023/06/17 13:00:33.746, True, 3.316, 0.134127
2023/06/17 13:00:34.242, True, 3.033, 0.134127
2023/06/17 13:00:34.746, True, 2.984, 0.135424
2023/06/17 13:00:35.250, True, 2.984, 0.136110
2023/06/17 13:00:35.754, True, 2.990, 0.134966
2023/06/17 13:00:36.250, True, 3.028, 0.134737
2023/06/17 13:00:36.754, True, 2.988, 0.135653
2023/06/17 13:00:37.259, True, 3.311, 0.134279
2023/06/17 13:00:37.755, True, 3.032, 0.133669
2023/06/17 13:00:38.259, True, 2.984, 0.133669
2023/06/17 13:00:38.762, True, 3.317, 0.134813
2023/06/17 13:00:39.258, True, 3.032, 0.136797
2023/06/17 13:00:39.762, True, 2.985, 0.137942
2023/06/17 13:00:40.267, True, 3.316, 0.135653
2023/06/17 13:00:40.762, True, 3.033, 0.136263
2023/06/17 13:00:41.267, True, 2.984, 0.136263
2023/06/17 13:00:41.771, True, 2.985, 0.134890
2023/06/17 13:00:42.266, True, 3.032, 0.135958
2023/06/17 13:00:42.770, True, 2.653, 0.135195
2023/06/17 13:00:43.274, True, 2.985, 0.135348
2023/06/17 13:00:43.771, True, 3.032, 0.136416
2023/06/17 13:00:44.274, True, 2.985, 0.136263
2023/06/17 13:00:44.778, True, 2.984, 0.138170
2023/06/17 13:00:45.275, True, 3.033, 0.135042
2023/06/17 13:00:45.779, True, 2.984, 0.135119
2023/06/17 13:00:46.283, True, 3.316, 0.138170
2023/06/17 13:00:46.779, True, 3.033, 0.137713
2023/06/17 13:00:47.282, True, 2.985, 0.135958
2023/06/17 13:00:47.787, True, 2.984, 0.135958
2023/06/17 13:00:48.283, True, 3.033, 0.135958
2023/06/17 13:00:48.787, True, 2.984, 0.134966
2023/06/17 13:00:49.290, True, 2.987, 0.136263
2023/06/17 13:00:49.794, True, 3.313, 0.135653
2023/06/17 13:00:50.290, True, 3.033, 0.135729
2023/06/17 13:00:50.794, True, 2.984, 0.136034
2023/06/17 13:00:51.298, True, 3.316, 0.136339
2023/06/17 13:00:51.795, True, 3.033, 0.137102
2023/06/17 13:00:52.299, True, 2.985, 0.135729
2023/06/17 13:00:52.803, True, 3.316, 0.136645
2023/06/17 13:00:53.299, True, 3.033, 0.135119
2023/06/17 13:00:53.802, True, 2.985, 0.137484
2023/06/17 13:00:54.307, True, 2.984, 0.131838
2023/06/17 13:00:54.803, True, 3.034, 0.136339
2023/06/17 13:00:55.306, True, 2.984, 0.134966
2023/06/17 13:00:55.810, True, 2.984, 0.134890
2023/06/17 13:00:56.306, True, 3.040, 0.134966
2023/06/17 13:00:56.810, True, 2.978, 0.134890
2023/06/17 13:00:57.314, True, 2.986, 0.133898
2023/06/17 13:00:57.811, True, 3.031, 0.136110
2023/06/17 13:00:58.314, True, 2.985, 0.134813
2023/06/17 13:00:58.818, True, 3.315, 0.134890
2023/06/17 13:00:59.314, True, 3.033, 0.136110
2023/06/17 13:00:59.818, True, 2.984, 0.134203
2023/06/17 13:01:00.322, True, 2.984, 0.135576
2023/06/17 13:01:00.818, True, 3.033, 0.134127
2023/06/17 13:01:01.322, True, 2.985, 0.135348
2023/06/17 13:01:01.826, True, 3.315, 0.136187
2023/06/17 13:01:02.322, True, 3.033, 0.135882
2023/06/17 13:01:02.826, True, 2.984, 0.136568
2023/06/17 13:01:03.330, True, 2.985, 0.132525
2023/06/17 13:01:03.826, True, 3.033, 0.134737
2023/06/17 13:01:04.330, True, 2.984, 0.132677
2023/06/17 13:01:04.834, True, 2.988, 0.133974
2023/06/17 13:01:05.330, True, 3.031, 0.134432
2023/06/17 13:01:05.834, True, 2.983, 0.133974
2023/06/17 13:01:06.338, True, 2.986, 0.134737
2023/06/17 13:01:06.834, True, 3.034, 0.134890
2023/06/17 13:01:07.338, True, 2.981, 0.135958
2023/06/17 13:01:07.842, True, 2.989, 0.134279
2023/06/17 13:01:08.338, True, 3.032, 0.137560
2023/06/17 13:01:08.842, True, 3.316, 0.136492
2023/06/17 13:01:09.338, True, 3.031, 0.133745
2023/06/17 13:01:09.842, True, 2.987, 0.135119
2023/06/17 13:01:10.346, True, 3.316, 0.134508
2023/06/17 13:01:10.850, True, 2.979, 0.134051
2023/06/17 13:01:11.346, True, 3.037, 0.133593
2023/06/17 13:01:11.850, True, 2.986, 0.133669
2023/06/17 13:01:12.354, True, 2.979, 0.133516
2023/06/17 13:01:12.850, True, 3.032, 0.134813
2023/06/17 13:01:13.354, True, 2.988, 0.134585
2023/06/17 13:01:13.858, True, 3.318, 0.134279
2023/06/17 13:01:14.354, True, 3.026, 0.134813
2023/06/17 13:01:14.858, True, 2.985, 0.135042
2023/06/17 13:01:15.362, True, 2.984, 0.133135
2023/06/17 13:01:15.858, True, 3.034, 0.134279
2023/06/17 13:01:16.362, True, 3.314, 0.135805
2023/06/17 13:01:16.866, True, 2.985, 0.134813
2023/06/17 13:01:17.362, True, 3.032, 0.133440
2023/06/17 13:01:17.866, True, 2.984, 0.134890
2023/06/17 13:01:18.370, True, 2.984, 0.134432
2023/06/17 13:01:18.866, True, 3.033, 0.134890
2023/06/17 13:01:19.370, True, 2.984, 0.133059
2023/06/17 13:01:19.874, True, 3.317, 0.135119
2023/06/17 13:01:20.370, True, 3.032, 0.133516
2023/06/17 13:01:20.874, True, 2.984, 0.134279
2023/06/17 13:01:21.370, True, 3.035, 0.134279
2023/06/17 13:01:21.874, True, 2.982, 0.134737
2023/06/17 13:01:22.378, True, 2.985, 0.135576
2023/06/17 13:01:22.874, True, 3.032, 0.134203
2023/06/17 13:01:23.378, True, 2.985, 0.136797
2023/06/17 13:01:23.882, True, 2.984, 0.131762
2023/06/17 13:01:24.378, True, 3.033, 0.134279
2023/06/17 13:01:24.882, True, 2.984, 0.132982
2023/06/17 13:01:25.386, True, 2.985, 0.133898
2023/06/17 13:01:25.882, True, 3.369, 0.132448
2023/06/17 13:01:26.386, True, 2.985, 0.133822
2023/06/17 13:01:26.890, True, 2.983, 0.134051
2023/06/17 13:01:27.386, True, 2.696, 0.133669
2023/06/17 13:01:27.890, True, 2.984, 0.134737
2023/06/17 13:01:28.394, True, 3.316, 0.133516
2023/06/17 13:01:28.890, True, 2.696, 0.134508
2023/06/17 13:01:29.394, True, 2.984, 0.134661
2023/06/17 13:01:29.898, True, 2.985, 0.133211
2023/06/17 13:01:30.394, True, 3.032, 0.134127
2023/06/17 13:01:30.898, True, 3.315, 0.133288
2023/06/17 13:01:31.402, True, 2.985, 0.131456
2023/06/17 13:01:31.898, True, 3.033, 0.133364
2023/06/17 13:01:32.402, True, 3.315, 0.132372
2023/06/17 13:01:32.906, True, 2.985, 0.132219
2023/06/17 13:01:33.402, True, 3.032, 0.133135
2023/06/17 13:01:33.906, True, 2.983, 0.134737
2023/06/17 13:01:34.410, True, 3.318, 0.133898
2023/06/17 13:01:34.906, True, 3.033, 0.134051
2023/06/17 13:01:35.410, True, 2.983, 0.132219
2023/06/17 13:01:35.906, True, 3.032, 0.131685
2023/06/17 13:01:36.410, True, 2.985, 0.132830
2023/06/17 13:01:36.914, True, 3.316, 0.134203
2023/06/17 13:01:37.410, True, 2.699, 0.134661
2023/06/17 13:01:37.914, True, 3.313, 0.131075
2023/06/17 13:01:38.418, True, 2.984, 0.134432
2023/06/17 13:01:38.922, True, 2.985, 0.135729
2023/06/17 13:01:39.418, True, 3.032, 0.132753
2023/06/17 13:01:39.922, True, 2.984, 0.131685
2023/06/17 13:01:40.426, True, 3.316, 0.134432
2023/06/17 13:01:40.922, True, 3.032, 0.131304
2023/06/17 13:01:41.426, True, 2.985, 0.132982
2023/06/17 13:01:41.930, True, 3.316, 0.132753
2023/06/17 13:01:42.426, True, 2.696, 0.131762
2023/06/17 13:01:42.930, True, 3.316, 0.131609
2023/06/17 13:01:43.434, True, 2.658, 0.134279
2023/06/17 13:01:43.930, True, 3.027, 0.134508
2023/06/17 13:01:44.434, True, 2.991, 0.131456
2023/06/17 13:01:44.938, True, 2.978, 0.135729
2023/06/17 13:01:45.434, True, 3.032, 0.134813
2023/06/17 13:01:45.938, True, 3.317, 0.133211
2023/06/17 13:01:46.442, True, 2.990, 0.133135
2023/06/17 13:01:46.938, True, 3.026, 0.131762
2023/06/17 13:01:47.442, True, 2.985, 0.133440
2023/06/17 13:01:47.946, True, 2.984, 0.133669
2023/06/17 13:01:48.442, True, 3.033, 0.131304
2023/06/17 13:01:48.946, True, 2.984, 0.131914
2023/06/17 13:01:49.450, True, 2.985, 0.133593
2023/06/17 13:01:49.946, True, 3.033, 0.134051
2023/06/17 13:01:50.450, True, 3.316, 0.130922
2023/06/17 13:01:50.954, True, 2.653, 0.134127
2023/06/17 13:01:51.450, True, 3.031, 0.132296
2023/06/17 13:01:51.954, True, 3.316, 0.132982
2023/06/17 13:01:52.458, True, 2.984, 0.132143
2023/06/17 13:01:52.954, True, 3.032, 0.131838
2023/06/17 13:01:53.458, True, 2.985, 0.133135
2023/06/17 13:01:53.962, True, 2.984, 0.131838
2023/06/17 13:01:54.458, True, 3.032, 0.131762
2023/06/17 13:01:54.962, True, 2.984, 0.132448
2023/06/17 13:01:55.466, True, 2.987, 0.133135
2023/06/17 13:01:55.962, True, 3.029, 0.132067
2023/06/17 13:01:56.466, True, 2.984, 0.133593
2023/06/17 13:01:56.971, True, 2.984, 0.132677
2023/06/17 13:01:57.466, True, 3.033, 0.133822
2023/06/17 13:01:57.970, True, 2.990, 0.133364
2023/06/17 13:01:58.473, True, 2.979, 0.131151
2023/06/17 13:01:58.970, True, 3.032, 0.131914
2023/06/17 13:01:59.474, True, 2.985, 0.132067
2023/06/17 13:01:59.978, True, 3.321, 0.131151
2023/06/17 13:02:00.474, True, 3.029, 0.131380
2023/06/17 13:02:00.978, True, 2.984, 0.134203
2023/06/17 13:02:01.482, True, 2.984, 0.129931
2023/06/17 13:02:01.978, True, 3.033, 0.131838
2023/06/17 13:02:02.482, True, 2.984, 0.132677
2023/06/17 13:02:02.986, True, 2.984, 0.133440
2023/06/17 13:02:03.490, True, 3.317, 0.133822
2023/06/17 13:02:03.986, True, 2.695, 0.134508
2023/06/17 13:02:04.490, True, 3.316, 0.131456
2023/06/17 13:02:04.994, True, 2.985, 0.133440
2023/06/17 13:02:05.490, True, 3.032, 0.131075
2023/06/17 13:02:05.994, True, 2.985, 0.133288
2023/06/17 13:02:06.498, True, 3.321, 0.133745
2023/06/17 13:02:06.994, True, 3.027, 0.132448
2023/06/17 13:02:07.498, True, 2.985, 0.132601
2023/06/17 13:02:08.002, True, 2.984, 0.132448
2023/06/17 13:02:08.498, True, 3.034, 0.131838
2023/06/17 13:02:09.002, True, 3.314, 0.130694
2023/06/17 13:02:09.506, True, 2.985, 0.129778
2023/06/17 13:02:10.002, True, 3.032, 0.131685
2023/06/17 13:02:10.506, True, 2.984, 0.131228
2023/06/17 13:02:11.010, True, 2.984, 0.130617
2023/06/17 13:02:11.506, True, 3.033, 0.131533
2023/06/17 13:02:12.010, True, 2.984, 0.134661
2023/06/17 13:02:12.514, True, 2.985, 0.131380
2023/06/17 13:02:13.010, True, 3.031, 0.131609
2023/06/17 13:02:13.514, True, 2.984, 0.134508
2023/06/17 13:02:14.018, True, 2.987, 0.134585
2023/06/17 13:02:14.514, True, 3.030, 0.131685
2023/06/17 13:02:15.018, True, 2.984, 0.130541
2023/06/17 13:02:15.522, True, 2.984, 0.131533
2023/06/17 13:02:16.018, True, 3.370, 0.131914
2023/06/17 13:02:16.522, True, 2.988, 0.133974
2023/06/17 13:02:17.026, True, 2.981, 0.132525
2023/06/17 13:02:17.522, True, 3.033, 0.134585
2023/06/17 13:02:18.026, True, 2.984, 0.131838
2023/06/17 13:02:18.530, True, 2.985, 0.133822
2023/06/17 13:02:19.026, True, 3.033, 0.131228
2023/06/17 13:02:19.530, True, 2.983, 0.131762
2023/06/17 13:02:20.034, True, 2.986, 0.132067
2023/06/17 13:02:20.530, True, 3.032, 0.131380
2023/06/17 13:02:21.034, True, 3.314, 0.130541
2023/06/17 13:02:21.538, True, 2.985, 0.131380
2023/06/17 13:02:22.034, True, 3.032, 0.133059
2023/06/17 13:02:22.538, True, 2.986, 0.132982
2023/06/17 13:02:23.042, True, 2.984, 0.132143
2023/06/17 13:02:23.538, True, 3.032, 0.130922
2023/06/17 13:02:24.042, True, 2.984, 0.131991
2023/06/17 13:02:24.546, True, 2.984, 0.131456
2023/06/17 13:02:25.042, True, 3.033, 0.132601
2023/06/17 13:02:25.546, True, 3.316, 0.132982
2023/06/17 13:02:26.042, True, 3.033, 0.130312
2023/06/17 13:02:26.546, True, 2.983, 0.132143
2023/06/17 13:02:27.050, True, 2.985, 0.131914
2023/06/17 13:02:27.545, True, 3.372, 0.130159
2023/06/17 13:02:28.050, True, 2.982, 0.131456
2023/06/17 13:02:28.554, True, 2.984, 0.130159
2023/06/17 13:02:29.050, True, 3.035, 0.130465
2023/06/17 13:02:29.554, True, 2.982, 0.132219
2023/06/17 13:02:30.058, True, 3.316, 0.132372
2023/06/17 13:02:30.554, True, 2.699, 0.130694
2023/06/17 13:02:31.058, True, 2.981, 0.129778
2023/06/17 13:02:31.554, True, 3.037, 0.130999
2023/06/17 13:02:32.058, True, 2.980, 0.131685
2023/06/17 13:02:32.562, True, 3.316, 0.129015
2023/06/17 13:02:33.058, True, 3.032, 0.132982
2023/06/17 13:02:33.562, True, 2.985, 0.132753
2023/06/17 13:02:34.066, True, 2.984, 0.131533
2023/06/17 13:02:34.561, True, 3.032, 0.130007
2023/06/17 13:02:35.066, True, 3.317, 0.130236
2023/06/17 13:02:35.562, True, 3.032, 0.131991
2023/06/17 13:02:36.066, True, 2.985, 0.131380
2023/06/17 13:02:36.569, True, 2.984, 0.132067
2023/06/17 13:02:37.066, True, 3.032, 0.131991
2023/06/17 13:02:37.570, True, 2.984, 0.132296
2023/06/17 13:02:38.074, True, 2.991, 0.131151
2023/06/17 13:02:38.569, True, 3.027, 0.130770
2023/06/17 13:02:39.073, True, 2.985, 0.131685
2023/06/17 13:02:39.578, True, 2.985, 0.131456
2023/06/17 13:02:40.074, True, 3.033, 0.129778
2023/06/17 13:02:40.578, True, 3.314, 0.133288
2023/06/17 13:02:41.074, True, 3.033, 0.130999
2023/06/17 13:02:41.578, True, 3.316, 0.132219
2023/06/17 13:02:42.082, True, 2.984, 0.131914
2023/06/17 13:02:42.578, True, 3.036, 0.131838
2023/06/17 13:02:43.082, True, 2.983, 0.132448
2023/06/17 13:02:43.586, True, 2.983, 0.131762
2023/06/17 13:02:44.082, True, 3.032, 0.131151
2023/06/17 13:02:44.586, True, 2.988, 0.131075
2023/06/17 13:02:45.090, True, 2.981, 0.131075
2023/06/17 13:02:45.586, True, 3.031, 0.130541
2023/06/17 13:02:46.090, True, 3.316, 0.129778
2023/06/17 13:02:46.594, True, 2.987, 0.131991
2023/06/17 13:02:47.090, True, 3.033, 0.131762
2023/06/17 13:02:47.594, True, 2.982, 0.129473
2023/06/17 13:02:48.098, True, 2.985, 0.133135
2023/06/17 13:02:48.594, True, 3.038, 0.130999
2023/06/17 13:02:49.098, True, 2.982, 0.128710
2023/06/17 13:02:49.602, True, 2.981, 0.132219
2023/06/17 13:02:50.098, True, 3.037, 0.129702
2023/06/17 13:02:50.602, True, 2.987, 0.130388
2023/06/17 13:02:51.106, True, 3.315, 0.132753
2023/06/17 13:02:51.602, True, 2.691, 0.129778
2023/06/17 13:02:52.106, True, 2.985, 0.132525
2023/06/17 13:02:52.610, True, 3.321, 0.129778
2023/06/17 13:02:53.106, True, 3.028, 0.133440
2023/06/17 13:02:53.610, True, 2.984, 0.129778
2023/06/17 13:02:54.114, True, 3.316, 0.132296
2023/06/17 13:02:54.618, True, 2.985, 0.130083
2023/06/17 13:02:55.114, True, 2.696, 0.131151
2023/06/17 13:02:55.618, True, 2.987, 0.131151
2023/06/17 13:02:56.114, True, 3.029, 0.131533
2023/06/17 13:02:56.618, True, 2.987, 0.130694
2023/06/17 13:02:57.122, True, 2.982, 0.130541
2023/06/17 13:02:57.618, True, 3.032, 0.132067
2023/06/17 13:02:58.122, True, 2.989, 0.131685
2023/06/17 13:02:58.626, True, 2.980, 0.130770
2023/06/17 13:02:59.122, True, 3.033, 0.129091
2023/06/17 13:02:59.626, True, 3.316, 0.129778
2023/06/17 13:03:00.130, True, 2.984, 0.131228
2023/06/17 13:03:00.626, True, 3.033, 0.132067
2023/06/17 13:03:01.130, True, 2.985, 0.130846
2023/06/17 13:03:01.634, True, 2.984, 0.131914
2023/06/17 13:03:02.130, True, 3.032, 0.130770
2023/06/17 13:03:02.634, True, 2.984, 0.129778
2023/06/17 13:03:03.130, True, 3.033, 0.130083
2023/06/17 13:03:03.634, True, 2.984, 0.130312
2023/06/17 13:03:04.138, True, 2.984, 0.130846
2023/06/17 13:03:04.642, True, 2.988, 0.130388
2023/06/17 13:03:05.138, True, 3.029, 0.130617
2023/06/17 13:03:05.642, True, 2.984, 0.131151
2023/06/17 13:03:06.138, True, 3.032, 0.129473
2023/06/17 13:03:06.642, True, 2.985, 0.129702
2023/06/17 13:03:07.146, True, 2.984, 0.130999
2023/06/17 13:03:07.642, True, 3.032, 0.132601
2023/06/17 13:03:08.146, True, 3.316, 0.130465
2023/06/17 13:03:08.650, True, 2.984, 0.130999
2023/06/17 13:03:09.146, True, 2.696, 0.129473
2023/06/17 13:03:09.650, True, 3.315, 0.128710
2023/06/17 13:03:10.154, True, 2.984, 0.129778
2023/06/17 13:03:10.650, True, 3.033, 0.131609
2023/06/17 13:03:11.154, True, 2.984, 0.129168
2023/06/17 13:03:11.658, True, 2.984, 0.132525
2023/06/17 13:03:12.154, True, 3.033, 0.130236
2023/06/17 13:03:12.658, True, 3.316, 0.131914
2023/06/17 13:03:13.162, True, 2.984, 0.131304
2023/06/17 13:03:13.658, True, 3.032, 0.128939
2023/06/17 13:03:14.162, True, 2.984, 0.132219
2023/06/17 13:03:14.666, True, 2.988, 0.133135
2023/06/17 13:03:15.162, True, 3.029, 0.131075
2023/06/17 13:03:15.666, True, 2.988, 0.130846
2023/06/17 13:03:16.162, True, 3.029, 0.132982
2023/06/17 13:03:16.666, True, 2.984, 0.131304
2023/06/17 13:03:17.170, True, 2.984, 0.131075
2023/06/17 13:03:17.666, True, 3.032, 0.130694
2023/06/17 13:03:18.170, True, 2.985, 0.130922
2023/06/17 13:03:18.674, True, 2.984, 0.130999
2023/06/17 13:03:19.170, True, 3.033, 0.131228
2023/06/17 13:03:19.674, True, 2.984, 0.131380
2023/06/17 13:03:20.170, True, 3.033, 0.130083
2023/06/17 13:03:20.674, True, 2.984, 0.131609
2023/06/17 13:03:21.178, True, 2.985, 0.131380
2023/06/17 13:03:21.674, True, 3.032, 0.129931
2023/06/17 13:03:22.178, True, 2.984, 0.127947
2023/06/17 13:03:22.682, True, 3.316, 0.132067
2023/06/17 13:03:23.178, True, 3.033, 0.129778
2023/06/17 13:03:23.682, True, 2.985, 0.128481
2023/06/17 13:03:24.185, True, 2.984, 0.130922
2023/06/17 13:03:24.682, True, 3.033, 0.129778
2023/06/17 13:03:25.186, True, 2.984, 0.129549
2023/06/17 13:03:25.682, True, 3.032, 0.131075
2023/06/17 13:03:26.186, True, 2.985, 0.131533
2023/06/17 13:03:26.690, True, 2.984, 0.128481
2023/06/17 13:03:27.186, True, 2.696, 0.130541
2023/06/17 13:03:27.690, True, 3.317, 0.131075
2023/06/17 13:03:28.194, True, 2.987, 0.129473
2023/06/17 13:03:28.698, True, 2.981, 0.129625
2023/06/17 13:03:29.194, True, 3.036, 0.129168
2023/06/17 13:03:29.698, True, 2.981, 0.131304
2023/06/17 13:03:30.202, True, 3.316, 0.130312
2023/06/17 13:03:30.698, True, 2.696, 0.131304
2023/06/17 13:03:31.201, True, 2.991, 0.129854
2023/06/17 13:03:31.706, True, 2.979, 0.130465
2023/06/17 13:03:32.202, True, 3.033, 0.129625
2023/06/17 13:03:32.706, True, 2.984, 0.130007
2023/06/17 13:03:33.209, True, 2.985, 0.129931
2023/06/17 13:03:33.706, True, 3.034, 0.130465
2023/06/17 13:03:34.210, True, 2.986, 0.129015
2023/06/17 13:03:34.714, True, 2.980, 0.130159
2023/06/17 13:03:35.210, True, 3.036, 0.128939
2023/06/17 13:03:35.714, True, 2.981, 0.131838
2023/06/17 13:03:36.218, True, 3.319, 0.129168
2023/06/17 13:03:36.714, True, 3.031, 0.130770
2023/06/17 13:03:37.218, True, 2.986, 0.130846
2023/06/17 13:03:37.722, True, 3.314, 0.130922
2023/06/17 13:03:38.218, True, 3.036, 0.132753
2023/06/17 13:03:38.722, True, 2.981, 0.129397
2023/06/17 13:03:39.226, True, 2.985, 0.129244
2023/06/17 13:03:39.729, True, 2.984, 0.130846
2023/06/17 13:03:40.226, True, 3.033, 0.130083
2023/06/17 13:03:40.730, True, 2.987, 0.132525
2023/06/17 13:03:41.234, True, 2.982, 0.132067
2023/06/17 13:03:41.730, True, 3.033, 0.130083
2023/06/17 13:03:42.234, True, 2.656, 0.129244
2023/06/17 13:03:42.738, True, 2.985, 0.130159
2023/06/17 13:03:43.234, True, 3.030, 0.129549
2023/06/17 13:03:43.738, True, 2.982, 0.132143
2023/06/17 13:03:44.242, True, 2.985, 0.131151
2023/06/17 13:03:44.738, True, 3.033, 0.130159
2023/06/17 13:03:45.241, True, 3.316, 0.129549
2023/06/17 13:03:45.746, True, 2.984, 0.128710
2023/06/17 13:03:46.249, True, 2.989, 0.130312
2023/06/17 13:03:46.746, True, 3.028, 0.129397
2023/06/17 13:03:47.250, True, 2.989, 0.129778
2023/06/17 13:03:47.753, True, 2.980, 0.131304
2023/06/17 13:03:48.250, True, 3.032, 0.132448
2023/06/17 13:03:48.754, True, 2.985, 0.127794
2023/06/17 13:03:49.258, True, 2.988, 0.131991
2023/06/17 13:03:49.754, True, 3.027, 0.129168
2023/06/17 13:03:50.258, True, 2.989, 0.129168
2023/06/17 13:03:50.762, True, 2.980, 0.128099
2023/06/17 13:03:51.258, True, 3.033, 0.130541
2023/06/17 13:03:51.762, True, 2.987, 0.129854
2023/06/17 13:03:52.266, True, 3.312, 0.129931
2023/06/17 13:03:52.762, True, 3.037, 0.130312
2023/06/17 13:03:53.266, True, 2.982, 0.129397
2023/06/17 13:03:53.770, True, 2.988, 0.129854
2023/06/17 13:03:54.266, True, 3.028, 0.129015
2023/06/17 13:03:54.770, True, 2.989, 0.128328
2023/06/17 13:03:55.274, True, 2.980, 0.130770
2023/06/17 13:03:55.770, True, 3.369, 0.129168
2023/06/17 13:03:56.274, True, 2.988, 0.130083
2023/06/17 13:03:56.778, True, 2.982, 0.129931
2023/06/17 13:03:57.273, True, 3.038, 0.129931
2023/06/17 13:03:57.778, True, 2.982, 0.131228
2023/06/17 13:03:58.274, True, 3.029, 0.129702
2023/06/17 13:03:58.778, True, 2.984, 0.128252
2023/06/17 13:03:59.281, True, 2.991, 0.130312
2023/06/17 13:03:59.785, True, 3.309, 0.128710
2023/06/17 13:04:00.282, True, 2.701, 0.131762
2023/06/17 13:04:00.786, True, 3.312, 0.128634
2023/06/17 13:04:01.290, True, 2.650, 0.129854
2023/06/17 13:04:01.785, True, 3.038, 0.129015
2023/06/17 13:04:02.289, True, 2.986, 0.131304
2023/06/17 13:04:02.794, True, 2.981, 0.130999
2023/06/17 13:04:03.290, True, 2.693, 0.130159
2023/06/17 13:04:03.794, True, 2.984, 0.132677
2023/06/17 13:04:04.298, True, 2.985, 0.130694
2023/06/17 13:04:04.793, True, 3.032, 0.132296
2023/06/17 13:04:05.298, True, 2.985, 0.129397
2023/06/17 13:04:05.802, True, 2.983, 0.129625
2023/06/17 13:04:06.306, True, 2.985, 0.130388
2023/06/17 13:04:06.801, True, 3.036, 0.130159
2023/06/17 13:04:07.306, True, 2.979, 0.128939
2023/06/17 13:04:07.802, True, 2.696, 0.129473
2023/06/17 13:04:08.305, True, 2.985, 0.131304
2023/06/17 13:04:08.810, True, 2.987, 0.128328
2023/06/17 13:04:09.314, True, 3.313, 0.132372
2023/06/17 13:04:09.810, True, 3.033, 0.128710
2023/06/17 13:04:10.314, True, 2.984, 0.129778
2023/06/17 13:04:10.818, True, 2.988, 0.129854
2023/06/17 13:04:11.314, True, 3.030, 0.129397
2023/06/17 13:04:11.817, True, 2.984, 0.128328
2023/06/17 13:04:12.322, True, 2.989, 0.130694